SL-3 R/B

Last updated on Tue Sep 15 2026 00:02:15 GMT+0000 (Coordinated Universal Time)

1 19046U 88032B 26257.57469727 .00003628 00000+0 16354-3 0 9990 2 19046 97.5358 240.6100 0023472 296.8338 63.0497 15.21459827 80819
UTC large
Height (km)
Speed (km/s)
/
Latitude / Longitude
Inclination (degrees)
Orbital Period (minutes)
Azimuth
Elevation
Range (km)
Doppler Factor

Next 0 passes for location: London (51.5072 / 0.1276)

No passes found over London.
SL-3 R/B